Weather History for Cincinnati, OH

Change the Weather History Date:

Monday, December 30, 2013

  Actual Average Record
Temperature  
Mean Temperature 36 °F -  
Max Temperature 48 °F 41 °F 67 °F (1964)
Min Temperature 24 °F 26 °F 0 °F (1983)
Degree Days  
Heating Degree Days 29    
Moisture  
Dew Point 20 °F    
Average Humidity 56    
Maximum Humidity 71    
Minimum Humidity 37    
Precipitation  
Precipitation 0.01 in - - ()
Sea Level Pressure  
Sea Level Pressure 30.21 in    
Wind  
Wind Speed 8 mph (WNW)    
Max Wind Speed 14 mph    
Max Gust Speed 17 mph    
Visibility 9 miles    
Events Snow    
Averages and records for this station are not official NWS values.
T = Trace of Precipitation, MM = Missing Value Source: NWS Daily Summary

Daily Weather History Graph

Daily Weather History Graph

Search for Another Location

Airport:

Trip Planner

Search our weather history database for the weather conditions in past years. The results will help you decide how hot, cold, wet, or windy it might be!

Date:

Astronomy

Dec. 30, 2013 Rise Set
Actual Time 7:56 AM EST 5:24 PM EST
Civil Twilight 7:26 AM EST 5:54 PM EST
Nautical Twilight 6:53 AM EST 6:27 PM EST
Astronomical Twilight 6:20 AM EST 7:00 PM EST
Moon 5:45 AM EST (12/30) 3:56 PM EST (12/30)
Length of Visible Light 10h 27m
Length of Day
9h 27m
Waning Crescent, 5% of the Moon is Illuminated
Dec 30
Waning Crescent
Jan 1
New
Jan 7
First Quarter
Jan 15
Full
Jan 24
Last Quarter

Hourly Weather History & Observations

Time (EST) Temp. Windchill Dew Point Humidity Pressure Visibility Wind Dir Wind Speed Gust Speed Precip Events Conditions
12:20 AM 48.2 °F - 30.2 °F 50% 30.06 in 4.0 mi WNW 9.2 mph - 0.00 in   Haze
12:53 AM 46.0 °F 43.1 °F 28.9 °F 51% 30.08 in 10.0 mi NW 5.8 mph - 0.00 in   Overcast
1:53 AM 39.0 °F 32.3 °F 27.0 °F 62% 30.10 in 10.0 mi NW 10.4 mph - N/A   Overcast
2:53 AM 39.0 °F 33.4 °F 25.0 °F 57% 30.12 in 10.0 mi NW 8.1 mph - N/A   Overcast
3:53 AM 45.0 °F 41.8 °F 25.0 °F 46% 30.15 in 10.0 mi NNW 5.8 mph - N/A   Overcast
4:53 AM 46.0 °F 42.5 °F 23.0 °F 40% 30.15 in 10.0 mi NW 6.9 mph - N/A   Overcast
5:53 AM 46.0 °F 41.9 °F 23.0 °F 40% 30.18 in 10.0 mi West 8.1 mph 17.3 mph N/A   Overcast
6:17 AM 44.6 °F 39.7 °F 24.8 °F 46% 30.18 in 10.0 mi West 9.2 mph - N/A   Overcast
6:53 AM 46.9 °F - 21.9 °F 37% 30.20 in 10.0 mi West 9.2 mph - N/A   Overcast
6:56 AM 46.4 °F 42.9 °F 21.2 °F 37% 30.20 in 10.0 mi WNW 6.9 mph - N/A   Overcast
7:53 AM 43.0 °F 36.0 °F 21.9 °F 43% 30.23 in 10.0 mi West 13.8 mph - N/A   Overcast
8:53 AM 41.0 °F 34.7 °F 21.0 °F 45% 30.25 in 8.0 mi West 10.4 mph - N/A   Unknown
9:07 AM 41.0 °F 34.7 °F 21.2 °F 45% 30.25 in 8.0 mi West 10.4 mph - 0.00 in   Unknown
9:27 AM 44.6 °F 41.4 °F 21.2 °F 39% 30.25 in 2.0 mi WNW 5.8 mph - 0.00 in   Unknown
9:53 AM 36.0 °F 31.1 °F 21.0 °F 55% 30.27 in 5.0 mi WNW 5.8 mph - 0.00 in Snow Light Snow
10:53 AM 30.0 °F 23.2 °F 19.0 °F 64% 30.28 in 10.0 mi WNW 6.9 mph - 0.01 in Snow Light Snow
11:53 AM 28.0 °F 22.8 °F 19.0 °F 69% 30.27 in 9.0 mi NW 4.6 mph - 0.00 in Snow Light Snow
12:53 PM 28.9 °F 22.8 °F 17.1 °F 61% 30.25 in 10.0 mi WSW 5.8 mph - 0.00 in   Overcast
1:53 PM 28.9 °F 21.9 °F 18.0 °F 64% 30.24 in 10.0 mi NW 6.9 mph - N/A   Overcast
2:53 PM 28.0 °F 21.7 °F 18.0 °F 66% 30.23 in 10.0 mi West 5.8 mph - N/A   Overcast
3:53 PM 28.0 °F 21.7 °F 18.0 °F 66% 30.22 in 10.0 mi West 5.8 mph - N/A   Overcast
4:53 PM 27.0 °F 19.5 °F 17.1 °F 66% 30.23 in 10.0 mi West 6.9 mph - N/A   Overcast
5:53 PM 27.0 °F 18.7 °F 17.1 °F 66% 30.24 in 10.0 mi West 8.1 mph - N/A   Overcast
6:53 PM 26.1 °F 16.2 °F 16.0 °F 66% 30.26 in 10.0 mi West 10.4 mph - N/A   Overcast
7:53 PM 25.0 °F 16.3 °F 15.1 °F 66% 30.26 in 10.0 mi West 8.1 mph - N/A   Partly Cloudy
8:53 PM 25.0 °F 17.1 °F 15.1 °F 66% 30.27 in 10.0 mi West 6.9 mph - N/A   Mostly Cloudy
9:53 PM 24.1 °F 16.0 °F 16.0 °F 71% 30.26 in 10.0 mi WSW 6.9 mph - N/A   Clear
10:53 PM 25.0 °F 17.1 °F 16.0 °F 69% 30.26 in 10.0 mi WSW 6.9 mph - N/A   Clear
11:53 PM 24.1 °F 16.0 °F 16.0 °F 71% 30.25 in 10.0 mi SSW 6.9 mph - N/A   Partly Cloudy